This is the latest recevied weather packets stored in our database for station/object KD0RIH. If no packets are shown the sender has not sent any weather packets the latest 10 day(s).
| Time | Temp. | Humidity | Pressure | Rain* | Wind** | Luminosity | Snow |
|---|---|---|---|---|---|---|---|
| 1777898728 | 17.22° C | 63% | 1003.3 hPa | 0 mm | - | 178 W/m² | - |
| 1777898425 | 17.22° C | 63% | 1003.5 hPa | 0 mm | - | 163 W/m² | - |
| 1777898123 | 16.67° C | 65% | 1003.7 hPa | 0 mm | - | 146 W/m² | - |
| 1777897820 | 16.67° C | 64% | 1003.6 hPa | 0 mm | - | 130 W/m² | - |
| 1777897516 | 16.67° C | 64% | 1003.7 hPa | 0 mm | - | 115 W/m² | - |
| 1777897211 | 16.11° C | 64% | 1003.7 hPa | 0 mm | - | 101 W/m² | - |
| 1777896908 | 16.11° C | 64% | 1003.8 hPa | 0 mm | - | 92 W/m² | - |
| 1777896605 | 16.11° C | 64% | 1003.7 hPa | 0 mm | - | 74 W/m² | - |
| 1777896302 | 15.56° C | 65% | 1003.7 hPa | 0 mm | - | 63 W/m² | - |
| 1777896000 | 15.56° C | 65% | 1003.7 hPa | 0 mm | - | 50 W/m² | - |
| 1777895698 | 15° C | 67% | 1003.9 hPa | 0 mm | - | 45 W/m² | - |
| 1777895394 | 15° C | 70% | 1003.8 hPa | 0 mm | - | 37 W/m² | - |
| 1777895092 | 14.44° C | 71% | 1003.8 hPa | 0 mm | - | 29 W/m² | - |
| 1777894789 | 14.44° C | 73% | 1003.7 hPa | 0 mm | - | 24 W/m² | - |
| 1777894486 | 14.44° C | 72% | 1003.6 hPa | 0 mm | - | 18 W/m² | - |
| 1777894183 | 14.44° C | 72% | 1003.7 hPa | 0 mm | - | 14 W/m² | - |
| 1777893881 | 13.89° C | 72% | 1003.8 hPa | 0 mm | - | 10 W/m² | - |
| 1777893577 | 13.33° C | 74% | 1003.6 hPa | 0 mm | - | 7 W/m² | - |
| 1777893273 | 13.89° C | 74% | 1003.7 hPa | 0 mm | - | 4 W/m² | - |
| 1777892970 | 13.89° C | 74% | 1003.7 hPa | 0 mm | - | 2 W/m² | - |
| 1777892666 | 13.89° C | 73% | 1003.7 hPa | 0 mm | - | 1 W/m² | - |
| 1777892362 | 13.89° C | 74% | 1003.8 hPa | 0 mm | - | 1 W/m² | - |
| 1777892059 | 13.89° C | 74% | 1003.8 hPa | 0 mm | - | 0 W/m² | - |
| 1777891756 | 13.89° C | 75% | 1003.8 hPa | 0 mm | - | 0 W/m² | - |
| 1777891452 | 13.89° C | 73% | 1003.8 hPa | 0 mm | - | 0 W/m² | - |
* Rain latest hour (hover to see other rain measurements)
** Current wind speed in m/s (hover to see current wind gust speed)